This is the latest recevied weather packets stored in our database for station/object KD7AWQ. If no packets are shown the sender has not sent any weather packets the latest 10 day(s).
| Time | Temp. | Humidity | Pressure | Rain* | Wind** | Luminosity | Snow |
|---|---|---|---|---|---|---|---|
| 1787944975 | 35.56° C | 22% | 1189.6 hPa | 0 mm | - | 998 W/m² | - |
| 1787944673 | 36.67° C | 21% | 1189.8 hPa | 0 mm | - | 988 W/m² | - |
| 1787944369 | 36.11° C | 22% | 1189.7 hPa | 0 mm | - | 1000 W/m² | - |
| 1787944064 | 35.56° C | 22% | 1190 hPa | 0 mm | - | 998 W/m² | - |
| 1787943759 | 35° C | 23% | 1190 hPa | 0 mm | - | 993 W/m² | - |
| 1787943454 | 35° C | 24% | 1190.1 hPa | 0 mm | - | 993 W/m² | - |
| 1787943149 | 35° C | 23% | 1190 hPa | 0 mm | - | 995 W/m² | - |
| 1787942838 | 34.44° C | 24% | 1190.5 hPa | 0 mm | - | 992 W/m² | - |
| 1787942534 | 34.44° C | 23% | 1190.1 hPa | 0 mm | - | 987 W/m² | - |
| 1787942228 | 34.44° C | 24% | 1190.3 hPa | 0 mm | - | 982 W/m² | - |
| 1787941923 | 33.89° C | 25% | 1190.4 hPa | 0 mm | - | 976 W/m² | - |
| 1787941623 | 33.89° C | 25% | 1190.4 hPa | 0 mm | - | 969 W/m² | - |
| 1787941323 | 33.89° C | 25% | 1190.5 hPa | 0 mm | - | 958 W/m² | - |
| 1787941022 | 33.89° C | 25% | 1190.5 hPa | 0 mm | - | 937 W/m² | - |
| 1787940721 | 33.89° C | 25% | 1190.6 hPa | 0 mm | - | 910 W/m² | - |
| 1787940420 | 33.89° C | 25% | 1190.7 hPa | 0 mm | - | 901 W/m² | - |
| 1787940114 | 33.33° C | 25% | 1190.9 hPa | 0 mm | - | 898 W/m² | - |
| 1787939814 | 33.89° C | 25% | 1191.2 hPa | 0 mm | - | 884 W/m² | - |
| 1787939508 | 33.33° C | 26% | 1190.6 hPa | 0 mm | - | 880 W/m² | - |
| 1787939203 | 33.89° C | 25% | 1190.9 hPa | 0 mm | - | 883 W/m² | - |
| 1787938903 | 33.89° C | 26% | 1191 hPa | 0 mm | - | 880 W/m² | - |
| 1787938602 | 33.33° C | 26% | 1191.2 hPa | 0 mm | - | 868 W/m² | - |
| 1787938298 | 32.78° C | 26% | 1191.3 hPa | 0 mm | - | 854 W/m² | - |
| 1787937993 | 32.78° C | 26% | 1191.3 hPa | 0 mm | - | 834 W/m² | - |
| 1787937688 | 32.22° C | 27% | 1191.3 hPa | 0 mm | - | 801 W/m² | - |
* Rain latest hour (hover to see other rain measurements)
** Current wind speed in m/s (hover to see current wind gust speed)